Flag for U.S.A. Weather past 2 weeks in McAllen, Texas, U.S.A.

Now
86 °F

Broken clouds.


Feels Like: 89 °F
Forecast: 73 / 84 °F
Wind: 21 mph from Southeast

Location: Miller International Airport

Current Time: May 4, 2015 at 12:14:35 PM

Latest Report: May 4, 2015 at 11:53 AM


Visibility: 10 mi

Pressure: 29.98 "Hg

Humidity: 55%

Dew point: 68 °F

Location of McAllenLocation

Historic Weather in McAllen — Graph

°F

McAllen temperature yesterday

Maximum temperature yesterday: 87 °F (at 4:53 PM)
Minimum temperature yesterday: 71 °F (at 12:53 AM)
Average temperature yesterday: 78 °F

Past Weeks' High & Low Weather Summary

 TemperatureHumidityPressure
High93 °F (Apr 25, 3:53 PM)90% (Apr 20, 3:53 AM)30.14 "Hg (Apr 20, 3:53 AM)
Low58 °F (Apr 30, 4:53 AM)22% (Apr 27, 4:53 PM)29.44 "Hg (Apr 27, 4:53 AM)
Average78 °F69%29.87 "Hg
* Reported Apr 19 10:00 AM — May 4 10:53 AM, McAllen, Weather by CustomWeather, © 2015

Note: Actual official high and low records may vary slightly from our data, if they occured in-between our weather recording intervals... More about our weather records

Advertising

McAllen weather history for previous 24 hours

 ConditionsComfort  
Time TempWeatherWind HumidityBarometerVisibility
10:53 AM
Mon, May 4
83 °FCloudy.21 mph61%29.99 "Hg10 mi
9:53 AM82 °FScattered clouds.23 mph63%29.97 "Hg10 mi
8:53 AM80 °FScattered clouds.20 mph69%29.96 "Hg10 mi
7:53 AM76 °FOvercast.9 mph82%29.94 "Hg10 mi
6:53 AM76 °FOvercast.9 mph82%29.92 "Hg10 mi
5:53 AM76 °FMostly cloudy.13 mph82%29.91 "Hg10 mi
5:02 AM76 °FMostly cloudy.10 mph82%29.92 "Hg10 mi
4:53 AM76 °FMostly cloudy.13 mph82%29.91 "Hg10 mi
3:53 AM75 °FOvercast.9 mph85%29.92 "Hg10 mi
2:53 AM75 °FPassing clouds.12 mph85%29.93 "Hg10 mi
1:53 AM74 °FPassing clouds.9 mph88%29.94 "Hg10 mi
12:53 AM75 °FOvercast.10 mph85%29.94 "Hg10 mi
11:53 PM
Sun, May 3
75 °FClear.9 mph82%29.95 "Hg10 mi
10:53 PM76 °FClear.10 mph80%29.95 "Hg10 mi
9:53 PM77 °FClear.13 mph77%29.94 "Hg10 mi
8:53 PM78 °FSunny.13 mph71%29.92 "Hg10 mi
7:53 PM80 °FSunny.16 mph67%29.91 "Hg10 mi
6:53 PM83 °FPartly sunny.22 mph61%29.90 "Hg10 mi
5:53 PM85 °FPassing clouds.22 mph57%29.90 "Hg10 mi
4:53 PM87 °FBroken clouds.21 mph55%29.90 "Hg10 mi
3:53 PM85 °FMostly cloudy.18 mph59%29.92 "Hg10 mi
2:53 PM85 °FMostly cloudy.16 mph59%29.93 "Hg10 mi
1:53 PM85 °FCloudy.17 mph59%29.95 "Hg10 mi
12:53 PM83 °FCloudy.16 mph63%29.97 "Hg10 mi
Weather by CustomWeather, © 2015

See weather overviewHow to use our weather pages